Weather History for Glasgow, MT

Change the Weather History Date:

Thursday, November 22, 2012

  Actual Average Record
Temperature  
Mean Temperature 20 °F 26 °F  
Max Temperature 30 °F 36 °F 69 °F (1954)
Min Temperature 9 °F 16 °F -25 °F (1900)
Degree Days  
Heating Degree Days 45 39  
Month to date heating degree days 786 737  
Since 1 July heating degree days 1664 1661  
Cooling Degree Days 0 0  
Month to date cooling degree days 0 0  
Year to date cooling degree days 681 533  
Moisture  
Dew Point 13 °F    
Average Humidity 77    
Maximum Humidity 92    
Minimum Humidity 61    
Precipitation  
Precipitation T in 0.01 in 0.24 in (1967)
Month to date precipitation 0.69 0.30  
Year to date precipitation 12.52 11.16  
Snow  
Snow T in 0.20 in 3.40 in (1958)
Month to date snowfall 12.3 3.5  
Since 1 July snowfall 13.3 5.0  
Since 1 September snowfall 13.3 5.0  
Snow Depth 0.00 in    
Sea Level Pressure  
Sea Level Pressure 30.30 in    
Wind  
Wind Speed 14 mph (NW)    
Max Wind Speed 31 mph    
Max Gust Speed 38 mph    
Visibility 9 miles    
Events Snow    
T = Trace of Precipitation, MM = Missing Value Source: NWS Daily Summary

Daily Weather History Graph

Daily Weather History Graph

Search for Another Location

Airport:

Trip Planner

Search our weather history database for the weather conditions in past years. The results will help you decide how hot, cold, wet, or windy it might be!

Date:

Astronomy

Nov. 22, 2012 Rise Set
Actual Time 7:24 AM MST 4:20 PM MST
Civil Twilight 6:49 AM MST 4:55 PM MST
Nautical Twilight 6:11 AM MST 5:33 PM MST
Astronomical Twilight 5:34 AM MST 6:10 PM MST
Moon 1:28 PM MST (11/22) 1:23 AM MST (11/22)
Length of Visible Light 10h 05m
Length of Day
8h 55m
Waxing Gibbous, 72% of the Moon is Illuminated
Nov 22
Waxing Gibbous
Nov 28
Full
Dec 6
Last Quarter
Dec 13
New
Dec 19
First Quarter

Hourly Weather History & Observations

Time (MST) Temp. Windchill Dew Point Humidity Pressure Visibility Wind Dir Wind Speed Gust Speed Precip Events Conditions
12:41 AM 28.4 °F 18.5 °F 26.6 °F 93% 29.86 in 10.0 mi NNW 11.5 mph - N/A   Overcast
12:53 AM 28.9 °F 19.2 °F 27.0 °F 92% 29.95 in 10.0 mi NW 11.5 mph - N/A   Overcast
1:03 AM 28.4 °F 19.1 °F 26.6 °F 93% 29.89 in 10.0 mi NW 10.4 mph - N/A   Overcast
1:16 AM 28.4 °F 20.4 °F 26.6 °F 93% 29.89 in 10.0 mi NW 8.1 mph - N/A   Overcast
1:41 AM 28.4 °F 18.0 °F 24.8 °F 86% 29.89 in 10.0 mi NW 12.7 mph - N/A   Overcast
1:53 AM 28.9 °F 19.8 °F 24.1 °F 82% 29.97 in 10.0 mi NW 10.4 mph - N/A   Overcast
2:53 AM 28.9 °F 20.4 °F 24.1 °F 82% 30.00 in 10.0 mi NW 9.2 mph - N/A   Overcast
3:53 AM 28.0 °F 17.0 °F 23.0 °F 81% 30.04 in 10.0 mi NNW 13.8 mph - N/A   Overcast
4:53 AM 27.0 °F 15.6 °F 21.9 °F 81% 30.07 in 10.0 mi NW 13.8 mph - N/A   Overcast
5:53 AM 25.0 °F 10.9 °F 19.0 °F 78% 30.13 in 10.0 mi NNW 19.6 mph - N/A   Overcast
6:05 AM 24.8 °F 11.1 °F 19.4 °F 80% 30.05 in 10.0 mi NNW 18.4 mph - N/A   Overcast
6:21 AM 24.8 °F 11.9 °F 17.6 °F 74% 30.06 in 10.0 mi NNW 16.1 mph - N/A   Overcast
6:53 AM 21.9 °F 9.2 °F 17.1 °F 82% 30.18 in 10.0 mi North 13.8 mph - N/A   Overcast
7:24 AM 21.2 °F 8.3 °F 17.6 °F 86% 30.10 in 4.0 mi NW 13.8 mph - 0.00 in Snow Light Snow
7:35 AM 21.2 °F 7.8 °F 17.6 °F 86% 30.11 in 2.0 mi NW 15.0 mph - 0.00 in Snow Light Snow
7:53 AM 21.0 °F 7.6 °F 16.0 °F 81% 30.22 in 8.0 mi NW 15.0 mph - 0.00 in Snow Light Snow
8:53 AM 19.0 °F 1.3 °F 10.0 °F 68% 30.30 in 10.0 mi NW 25.3 mph 32.2 mph N/A   Overcast
9:49 AM 17.6 °F -1.0 °F 8.6 °F 68% 30.24 in 10.0 mi NW 26.5 mph 35.7 mph N/A   Overcast
9:53 AM 17.1 °F -2.0 °F 8.1 °F 68% 30.36 in 10.0 mi NW 27.6 mph 35.7 mph N/A   Overcast
10:09 AM 17.6 °F -0.3 °F 8.6 °F 68% 30.26 in 10.0 mi NW 24.2 mph 34.5 mph N/A   Overcast
10:53 AM 16.0 °F -3.2 °F 7.0 °F 68% 30.40 in 9.0 mi NW 26.5 mph - 0.00 in   Overcast
11:53 AM 17.1 °F -0.6 °F 8.1 °F 68% 30.43 in 5.0 mi NW 23.0 mph - 0.00 in Snow Light Snow
12:09 PM 17.6 °F -0.3 °F 8.6 °F 68% 30.32 in 2.0 mi NW 24.2 mph 31.1 mph 0.00 in Snow Light Snow
12:28 PM 17.6 °F 0.5 °F 8.6 °F 68% 30.33 in 6.0 mi NW 21.9 mph 28.8 mph 0.00 in Snow Light Snow
12:53 PM 17.1 °F -1.4 °F 9.0 °F 71% 30.47 in 5.0 mi NW 25.3 mph 31.1 mph 0.00 in Snow Light Snow
1:53 PM 18.0 °F 0.2 °F 7.0 °F 62% 30.50 in 10.0 mi WNW 24.2 mph 29.9 mph 0.00 in   Overcast
2:30 PM 17.6 °F 0.1 °F 6.8 °F 63% 30.39 in 10.0 mi NW 23.0 mph 29.9 mph N/A   Scattered Clouds
2:53 PM 17.1 °F 0.6 °F 7.0 °F 65% 30.52 in 10.0 mi NW 19.6 mph 31.1 mph N/A   Partly Cloudy
3:53 PM 16.0 °F -0.9 °F 7.0 °F 68% 30.56 in 10.0 mi NW 19.6 mph - N/A   Partly Cloudy
4:53 PM 14.0 °F 0.5 °F 7.0 °F 74% 30.60 in 10.0 mi NW 11.5 mph - 0.01 in   Clear
5:53 PM 14.0 °F -0.2 °F 7.0 °F 74% 30.61 in 10.0 mi NW 12.7 mph - N/A   Clear
6:53 PM 12.9 °F 0.7 °F 7.0 °F 77% 30.63 in 10.0 mi NW 9.2 mph - N/A   Clear
7:53 PM 12.0 °F 1.5 °F 6.1 °F 77% 30.64 in 10.0 mi NNW 6.9 mph - N/A   Clear
8:53 PM 9.0 °F 0.6 °F 5.0 °F 84% 30.66 in 10.0 mi WNW 4.6 mph - N/A   Clear
9:53 PM 9.0 °F - 5.0 °F 84% 30.67 in 10.0 mi Calm Calm - N/A   Clear
10:53 PM 10.0 °F - 5.0 °F 80% 30.67 in 10.0 mi Calm Calm - N/A   Clear
11:53 PM 10.0 °F - 5.0 °F 80% 30.66 in 10.0 mi Calm Calm - N/A   Clear